Tracking 19476 objects as of 17-Jan-2019
HD Live streaming from Space Station
objects crossing your sky now

COSMOS 1802

Track COSMOS 1802 now!
10-day predictions
COSMOS 1802 is classified as:


NORAD ID: 17159
Int'l Code: 1986-093A
Perigee: 964.5 km
Apogee: 1,029.3 km
Inclination: 82.9 °
Period: 104.9 minutes
Semi major axis: 7367 km
RCS: 2.3219 m2 (large)
Launch date: November 24, 1986
Source: Commonwealth of Independent States (former USSR) (CIS)
Launch site: PLESETSK MISSILE AND SPACE COMPLEX (PKMTR)
aabbcc
Your satellite tracking list
Your tracking list is empty




NASA's NSSDC Master Catalog

Two Line Element Set (TLE):
1 17159U 86093A   19016.19215337  .00000037  00000-0  23672-4 0  9991
2 17159  82.9283  24.0920 0044014  90.6359 317.5190 13.72733160610218
Source of the keplerian elements: AFSPC